[[{"header":{"parameterUnit":"m.s-1","parameterCategory":1,"la1":30.2991,"la2":30.254,"lo1":-89.0895,"lo2":-89.0444,"dy":0.0017,"dx":0.0017,"nx":28,"ny":28,"refTime":"2023-08-25T09:00:00:Z","depth":0,"parameterNumber":2,"parameterNumberName":"U-component_of_WINDS"},"data":[0,0,0,0,0,0,0,0,0,0,0,0,0,0,0,0,0,0,0,0,0,0,0,0,0,0,0,0,0,0,0,0,0,0,0,0,0,0,0,0,0,0,0,0,0,0,0,0,0,0,0,0,0,0,0,0,0,0,-0.7039,-0.7039,0,-0.7044,-0.7044,-0.7044,-0.7035,-0.7035,-0.7035,-0.7034,-0.704,-0.7041,-0.7041,0,0,0,0,0,0,0,0,0,0,0,0,0,-0.7023,-0.7023,-0.7039,-0.7039,-0.7039,-0.7044,-0.7044,-0.7044,-0.7035,-0.7035,-0.7035,-0.7034,-0.704,-0.704,-0.7041,0,0,0,0,0,0,0,0,0,0,0,0,0,-0.7029,-0.7023,-0.7039,-0.7035,-0.7035,-0.7044,-0.7044,-0.7044,-0.7035,-0.7035,-0.7034,-0.7034,-0.704,-0.704,-0.7041,-0.7054,0,0,-0.7043,-0.7043,0,0,0,0,0,0,0,0,-0.7029,-0.703,-0.7036,-0.7036,-0.7035,-0.7039,-0.7041,-0.7048,-0.7035,-0.7035,-0.7034,-0.7034,-0.704,-0.7041,-0.7043,-0.7054,-0.7055,-0.7043,-0.7044,-0.7044,-0.7044,0,0,0,0,0,0,0,-0.7028,-0.703,-0.7041,-0.7036,-0.7036,-0.7034,-0.7034,-0.7042,-0.704,-0.7035,-0.7035,-0.7035,-0.704,-0.7042,-0.7043,-0.7055,-0.7043,-0.7044,-0.7044,-0.7044,-0.7078,-0.7079,0,0,0,0,0,0,-0.7028,-0.7029,-0.7041,-0.7041,-0.7031,-0.7034,-0.7035,-0.7038,-0.704,-0.704,-0.7036,-0.7035,-0.7041,-0.7042,-0.7043,-0.7059,-0.7044,-0.7044,-0.7045,-0.7078,-0.7078,-0.7079,0,0,0,0,0,0,-0.7028,-0.703,-0.7041,-0.7035,-0.7036,-0.7035,-0.7039,-0.7038,-0.7041,-0.704,-0.704,-0.7038,-0.7041,-0.7042,-0.7052,-0.7059,-0.7045,-0.7045,-0.7077,-0.7078,-0.7079,-0.7091,0,0,0,0,0,0,-0.7028,-0.7029,-0.7034,-0.7035,-0.7037,-0.7049,-0.7039,-0.7039,-0.7042,-0.7041,-0.7043,-0.7043,-0.704,-0.7051,-0.7052,-0.706,-0.7046,-0.7077,-0.7078,-0.7078,-0.709,-0.7092,-0.7094,0,0,0,0,0,-0.7027,-0.7037,-0.7035,-0.7036,-0.7043,-0.705,-0.7051,-0.7048,-0.7042,-0.7047,-0.7047,-0.7042,-0.7058,-0.7052,-0.7053,-0.7061,-0.7076,-0.7077,-0.7078,-0.7089,-0.7091,-0.7094,0,0,0,0,0,0,-0.7038,-0.7038,-0.7034,-0.7045,-0.7048,-0.7048,-0.7054,-0.7051,-0.7055,-0.7054,-0.705,-0.7051,-0.7061,-0.7062,-0.7055,-0.7074,-0.7066,-0.7068,-0.7073,-0.7076,-0.7078,-0.7078,-0.7046,0,0,0,0,0,-0.7041,-0.7047,-0.7046,-0.7056,-0.7057,-0.7056,-0.7059,-0.7056,-0.7059,-0.706,-0.706,-0.7063,-0.7068,-0.7072,-0.7077,-0.709,-0.709,-0.7096,-0.7098,-0.7099,-0.7101,-0.7108,-0.7111,-0.7083,-0.7083,-0.7083,0,0,-0.7049,-0.7049,-0.7053,-0.7058,-0.706,-0.7066,-0.7057,-0.7063,-0.7068,-0.7061,-0.707,-0.707,-0.7073,-0.7085,-0.709,-0.7086,-0.7109,-0.7101,-0.7102,-0.7103,-0.711,-0.7113,-0.7115,-0.7084,-0.7083,-0.7083,0,0,-0.7066,-0.7066,-0.7075,-0.7076,-0.7079,-0.7077,-0.708,-0.7081,-0.7081,-0.709,-0.7085,-0.709,-0.71,-0.7102,-0.7104,-0.7122,-0.7119,-0.7124,-0.7135,-0.7142,-0.7144,-0.7146,-0.7153,-0.7156,-0.7125,-0.7125,-0.7125,0,-0.7075,-0.7083,-0.708,-0.7087,-0.709,-0.7083,-0.7092,-0.7094,-0.7098,-0.71,-0.7095,-0.7107,-0.7108,-0.712,-0.7125,-0.7127,-0.7129,-0.7124,-0.7144,-0.7146,-0.7148,-0.7155,-0.7157,-0.7126,-0.7126,-0.7126,-0.7126,0,-0.7095,-0.7101,-0.7108,-0.7112,-0.7115,-0.7123,-0.7121,-0.7125,-0.7122,-0.7121,-0.7131,-0.7132,-0.7138,-0.714,-0.7138,-0.7152,-0.715,-0.7145,-0.7137,-0.7151,-0.7158,-0.716,-0.7127,-0.7127,-0.7127,-0.7127,0,0,-0.7119,-0.7121,-0.7123,-0.7125,-0.7127,-0.7132,-0.714,-0.7145,-0.7149,-0.7152,-0.7159,-0.7166,-0.7162,-0.7165,-0.7162,-0.7168,-0.7184,-0.7163,-0.7163,-0.7167,-0.7201,-0.7205,-0.7208,-0.7181,-0.7181,-0.7181,-0.7201,0,-0.7137,-0.715,-0.7147,-0.716,-0.7166,-0.716,-0.7167,-0.7169,-0.7169,-0.7174,-0.7174,-0.718,-0.7173,-0.7174,-0.718,-0.718,-0.719,-0.7179,-0.7188,-0.7188,-0.7188,-0.7211,-0.7216,-0.7234,-0.7203,-0.7203,-0.7204,0,-0.7159,-0.7163,-0.7177,-0.7178,-0.7181,-0.7187,-0.7191,-0.7196,-0.7199,-0.7198,-0.7201,-0.7198,-0.7206,-0.7197,-0.7209,-0.7201,-0.7204,-0.7205,-0.7206,-0.7207,-0.7198,-0.7214,-0.724,-0.7243,-0.7207,-0.7207,-0.7207,0,-0.7177,-0.7185,-0.7195,-0.7196,-0.7198,-0.7202,-0.7203,-0.7205,-0.7209,-0.7213,-0.7215,-0.722,-0.7223,-0.7227,-0.7225,-0.7219,-0.7237,-0.7228,-0.7238,-0.7238,-0.7243,-0.7243,-0.727,-0.7243,-0.7243,-0.7243,-0.7243,0,-0.7197,-0.7206,-0.7202,-0.7209,-0.7219,-0.7215,-0.7225,-0.7225,-0.7227,-0.7233,-0.7228,-0.7234,-0.723,-0.7236,-0.7235,-0.7245,-0.7246,-0.7246,-0.7246,-0.7248,-0.7248,-0.725,-0.725,-0.7244,-0.7244,-0.7244,-0.7243,0,-0.7219,-0.7217,-0.7227,-0.7227,-0.7228,-0.7235,-0.7236,-0.7242,-0.7241,-0.7249,-0.725,-0.7249,-0.7256,-0.7254,-0.7261,-0.726,-0.7274,-0.7271,-0.7273,-0.7273,-0.7283,-0.7282,-0.7314,-0.7318,-0.7287,-0.7288,-0.7288,0,-0.7233,-0.724,-0.7241,-0.7244,-0.7246,-0.7251,-0.7255,-0.7251,-0.7255,-0.7258,-0.7264,-0.727,-0.7275,-0.7286,-0.7286,-0.7292,-0.729,-0.7301,-0.7291,-0.7292,-0.7291,-0.7291,-0.7293,-0.7303,-0.7303,-0.7304,-0.7304,0,-0.7258,-0.7256,-0.7261,-0.7266,-0.727,-0.7273,-0.7276,-0.728,-0.7276,-0.7281,-0.7288,-0.7291,-0.7299,-0.7305,-0.731,-0.7312,-0.7308,-0.7307,-0.7309,-0.7311,-0.7313,-0.7313,-0.7279,-0.7306,-0.7306,-0.7306,-0.7306,-0.7306,-0.7277,-0.7283,-0.7284,-0.729,-0.7292,-0.7295,-0.73,-0.73,-0.7305,-0.7311,-0.7309,-0.7316,-0.7319,-0.7326,-0.7327,-0.7334,-0.733,-0.7334,-0.7335,-0.7336,-0.7338,-0.7311,-0.7335,-0.7335,-0.7335,-0.7335,-0.7334,0,-0.7302,-0.7303,-0.7308,-0.7313,-0.7317,-0.7312,-0.7315,-0.732,-0.7326,-0.7329,-0.7334,-0.7342,-0.7348,-0.7348,-0.7354,-0.7359,-0.7358,-0.7361,-0.7361,-0.7362,-0.734,-0.7338,-0.7362,-0.7362,-0.7362,-0.7362,-0.7362,-0.7362,-0.7316,-0.7326,-0.7325,-0.7336,-0.7337,-0.7344,-0.7346,-0.7349,-0.7351,-0.736,-0.7365,-0.7365,-0.7367,-0.7373,-0.7379,-0.7379,-0.7382,-0.7386,-0.7386,-0.7366,-0.7363,-0.7361,-0.7358,-0.7387,-0.7387,-0.7407,-0.7407,-0.7407]},{"header":{"parameterUnit":"m.s-1","parameterCategory":1,"la1":30.2991,"la2":30.254,"lo1":-89.0895,"lo2":-89.0444,"dy":0.0017,"dx":0.0017,"nx":28,"ny":28,"refTime":"2023-08-25T09:00:00:Z","depth":0,"parameterNumber":3,"parameterNumberName":"V-component_of_WINDS"},"data":[0,0,0,0,0,0,0,0,0,0,0,0,0,0,0,0,0,0,0,0,0,0,0,0,0,0,0,0,0,0,0,0,0,0,0,0,0,0,0,0,0,0,0,0,0,0,0,0,0,0,0,0,0,0,0,0,0,0,0.8715,0.8715,0,0.8748,0.8749,0.8749,0.8723,0.8722,0.8721,0.872,0.8754,0.8756,0.8758,0,0,0,0,0,0,0,0,0,0,0,0,0,0.863,0.8631,0.8715,0.8715,0.8716,0.8748,0.8749,0.8749,0.8723,0.8722,0.8721,0.8719,0.8753,0.8756,0.8758,0,0,0,0,0,0,0,0,0,0,0,0,0,0.8665,0.8632,0.8715,0.8707,0.8706,0.8748,0.8749,0.8749,0.8724,0.8722,0.872,0.8719,0.8753,0.8755,0.8758,0.881,0,0,0.8767,0.8769,0,0,0,0,0,0,0,0,0.8663,0.8668,0.8708,0.8708,0.8707,0.873,0.8731,0.877,0.8724,0.8717,0.872,0.8718,0.8747,0.8751,0.876,0.8811,0.8813,0.8768,0.8769,0.8771,0.8771,0,0,0,0,0,0,0,0.8661,0.8667,0.8728,0.8708,0.8708,0.8702,0.8705,0.8738,0.8741,0.8718,0.8716,0.872,0.8747,0.8758,0.8761,0.8813,0.8767,0.877,0.8772,0.8773,0.8908,0.891,0,0,0,0,0,0,0.8659,0.8665,0.8727,0.8729,0.8681,0.8705,0.8708,0.8724,0.8741,0.8742,0.8721,0.8719,0.8754,0.8758,0.8762,0.8823,0.8771,0.8773,0.8775,0.8906,0.8909,0.8911,0,0,0,0,0,0,0.8657,0.8665,0.8726,0.8697,0.8704,0.8708,0.8726,0.8726,0.8737,0.8744,0.8744,0.8732,0.8752,0.8758,0.8798,0.8824,0.8775,0.8777,0.8904,0.8907,0.891,0.8946,0,0,0,0,0,0,0.8655,0.8664,0.8684,0.8697,0.8705,0.8761,0.8728,0.8728,0.8742,0.8738,0.8754,0.8755,0.8752,0.8794,0.8801,0.8827,0.878,0.8902,0.8905,0.8909,0.8943,0.895,0.8956,0,0,0,0,0,0.8652,0.8693,0.8685,0.8693,0.873,0.8763,0.8767,0.8763,0.8744,0.8763,0.8768,0.8754,0.882,0.8798,0.8806,0.8834,0.89,0.8904,0.8908,0.894,0.8949,0.8956,0,0,0,0,0,0,0.8682,0.8694,0.8686,0.8732,0.8747,0.8758,0.8783,0.8772,0.8793,0.8789,0.8783,0.8786,0.8828,0.8835,0.881,0.8884,0.8857,0.8863,0.8878,0.8887,0.8893,0.8891,0.8782,0,0,0,0,0,0.8695,0.872,0.8729,0.8769,0.8777,0.8779,0.8793,0.8788,0.8803,0.8809,0.8816,0.8831,0.8856,0.8872,0.8894,0.8944,0.8947,0.8967,0.8973,0.8979,0.8984,0.9011,0.902,0.8924,0.8924,0.8924,0,0,0.872,0.873,0.8746,0.8776,0.8786,0.8813,0.8784,0.8813,0.8833,0.8813,0.8852,0.8858,0.8874,0.8919,0.8939,0.8926,0.9011,0.8984,0.8988,0.899,0.9016,0.9025,0.9033,0.8927,0.8926,0.8926,0,0,0.8779,0.8789,0.8824,0.8835,0.8852,0.8853,0.8861,0.8874,0.8878,0.8916,0.8902,0.8925,0.8967,0.8979,0.8991,0.9055,0.9043,0.9063,0.9098,0.9124,0.9131,0.9138,0.9161,0.9169,0.9068,0.9068,0.9068,0,0.8809,0.8848,0.8843,0.8873,0.8887,0.887,0.8905,0.8916,0.894,0.8949,0.8934,0.8986,0.8996,0.9044,0.906,0.907,0.9079,0.9061,0.9131,0.9137,0.9144,0.9165,0.9174,0.9071,0.907,0.907,0.907,0,0.8883,0.8911,0.8937,0.8959,0.8976,0.9008,0.9008,0.9026,0.902,0.9022,0.9062,0.9073,0.9098,0.9109,0.9103,0.9156,0.9147,0.9132,0.9104,0.9155,0.9175,0.9184,0.9074,0.9073,0.9072,0.9072,0,0,0.8962,0.8982,0.8992,0.9002,0.9019,0.904,0.9072,0.9096,0.9111,0.9128,0.9154,0.919,0.9176,0.919,0.9185,0.9209,0.9259,0.919,0.919,0.9202,0.9318,0.9329,0.9339,0.9251,0.9253,0.9254,0.9316,0,0.9023,0.9078,0.9074,0.9126,0.9152,0.9137,0.9165,0.9178,0.9182,0.9204,0.9208,0.9234,0.9213,0.9221,0.9243,0.9248,0.9282,0.9244,0.9276,0.9277,0.9272,0.9349,0.9361,0.9419,0.9324,0.9326,0.9326,0,0.91,0.9119,0.9174,0.9187,0.9198,0.9223,0.9245,0.9266,0.9282,0.9283,0.9298,0.929,0.9323,0.9295,0.934,0.9314,0.9327,0.9331,0.9333,0.9336,0.9305,0.9354,0.9438,0.9446,0.9339,0.9338,0.9337,0,0.9152,0.9192,0.9229,0.9239,0.9255,0.9273,0.9281,0.9295,0.931,0.9329,0.9338,0.9361,0.9374,0.9392,0.9391,0.9371,0.9436,0.9408,0.9438,0.9438,0.9452,0.9451,0.9539,0.9461,0.9461,0.9461,0.9461,0,0.9219,0.9253,0.9253,0.9276,0.9314,0.931,0.9347,0.9353,0.9366,0.939,0.9378,0.9402,0.9399,0.9422,0.9421,0.9459,0.9464,0.9466,0.9466,0.9467,0.9467,0.9475,0.9471,0.9463,0.9463,0.9462,0.9462,0,0.9283,0.9285,0.9325,0.9337,0.9341,0.9369,0.9379,0.9402,0.9404,0.9435,0.9442,0.9447,0.9474,0.9474,0.9505,0.9505,0.955,0.9545,0.9545,0.9544,0.9573,0.9571,0.967,0.9682,0.9597,0.9597,0.9598,0,0.9326,0.9352,0.9367,0.9383,0.9391,0.9416,0.9431,0.9428,0.9445,0.9464,0.9484,0.951,0.953,0.9574,0.958,0.9604,0.9599,0.9632,0.9603,0.9604,0.96,0.9598,0.9601,0.9638,0.9639,0.964,0.964,0,0.9401,0.9401,0.9423,0.9445,0.9463,0.9481,0.9497,0.9511,0.9509,0.9528,0.9556,0.9572,0.9603,0.9629,0.9652,0.966,0.9651,0.965,0.9658,0.9659,0.9658,0.9659,0.956,0.9647,0.9647,0.9646,0.9646,0.9646,0.9456,0.9478,0.9492,0.9517,0.9529,0.9545,0.9566,0.9572,0.9594,0.962,0.9617,0.9647,0.9662,0.9692,0.9703,0.9727,0.9715,0.9727,0.973,0.9733,0.9736,0.9655,0.9731,0.9731,0.973,0.973,0.973,0,0.9531,0.9539,0.9562,0.9585,0.9605,0.9594,0.9611,0.9629,0.9655,0.967,0.9691,0.9722,0.9747,0.9756,0.978,0.9798,0.9794,0.9804,0.9803,0.9805,0.9745,0.9735,0.9807,0.9807,0.9807,0.9807,0.9807,0.9807,0.9572,0.9609,0.961,0.9653,0.9661,0.9691,0.9702,0.9716,0.9728,0.9763,0.9784,0.9789,0.9802,0.9827,0.985,0.9852,0.9861,0.9874,0.9874,0.9817,0.9809,0.9802,0.9793,0.9876,0.9876,0.9932,0.9932,0.9933]}]]